Dewpoint
75 75 74 76 75 73 71 68 57 62 60 55 56 57 54 61 59 59 58 59 58 58 59 59 62 59 60 61 60 62 63 58 62 53 52 66 71 72 72 73 73 73 72 73 74 74 74 75 76 76 76 76 76 76 76 76 77 77 77 77 77 77 77 77 77 77 77 77 77 77 77 77 77 77 76 76 76 76 76 75 75 75 76 76 76 76 76 76 76 75 76 75 76 75 75 75 75
73 74 75 75 74 72 66 68 59 57 57 55 54 58 55 58 60 57 57 58 56 57 60 59 61 61 62 62 62 60 61 64 65 65 67 70 71 71 72 73 73 72 72 73 73 73 74 75 76 76 77 76 76 76 76 76 76 77 77 77 77 77 77 77 77 77 76 76 76 77 77 77 77 76 76 76 76 76 76 75 76 76 76 76 76 77 76 76 76 76 76 76 75 76 75 75 76
73 74 74 73 71 71 69 67 54 54 51 50 53 57 57 56 55 56 57 56 57 59 60 60 61 60 60 61 58 60 59 66 66 67 68 70 69 71 72 72 73 73 72 73 73 73 73 74 75 76 76 76 75 76 76 76 76 77 77 77 77 77 77 76 76 76 76 76 77 77 77 77 77 76 76 76 76 76 76 76 76 76 76 76 76 77 76 76 76 76 76 76 75 76 75 76 75
73 73 71 70 67 70 62 60 57 54 52 52 53 54 55 55 55 56 56 55 58 59 59 59 59 61 60 60 61 63 63 64 67 67 67 69 69 72 72 72 73 73 73 73 74 73 74 74 75 76 77 76 76 75 75 76 76 77 77 77 77 77 76 76 76 76 76 76 77 77 77 77 77 77 77 77 77 76 76 76 76 76 76 76 76 76 76 76 76 76 76 76 75 76 76 76 76
71 72 71 71 66 61 61 58 58 55 51 55 51 53 53 54 55 54 56 57 58 59 60 60 59 61 61 61 61 61 63 66 67 68 68 70 72 72 72 73 73 73 73 73 74 74 74 74 74 75 76 76 75 76 75 76 76 76 77 77 77 77 77 76 76 76 76 76 77 77 77 77 77 77 77 77 76 77 77 76 76 76 76 76 76 76 76 76 76 76 76 76 76 76 76 76 76
70 70 72 71 65 67 62 56 56 55 52 55 56 55 53 53 53 55 56 57 59 59 59 58 58 58 59 61 63 63 65 63 67 68 69 70 71 72 72 73 72 72 73 73 74 74 74 75 76 76 75 75 76 76 75 76 76 76 77 77 76 77 77 76 76 75 75 76 77 77 77 77 77 77 77 77 77 77 77 77 77 77 77 77 77 77 77 76 76 76 76 76 76 76 76 76 75
69 70 70 68 66 65 57 55 55 55 55 54 56 54 53 54 54 55 57 58 59 59 60 59 60 60 59 62 64 66 67 68 68 68 70 71 72 72 72 72 72 72 73 73 73 74 75 76 76 76 75 75 76 76 76 76 76 76 76 76 76 76 76 76 76 75 75 76 77 77 77 77 77 77 77 77 77 77 77 77 77 77 77 77 77 77 77 77 77 76 76 76 75 75 76 76 76
71 67 66 63 60 58 56 56 55 55 54 54 54 53 52 53 55 55 57 57 57 58 59 60 60 60 60 63 62 67 68 70 69 70 70 71 71 71 72 72 72 72 72 73 73 74 76 76 76 76 76 76 76 76 76 76 76 76 76 76 76 76 76 76 76 75 75 76 77 77 77 77 77 77 77 77 77 77 77 77 77 77 77 77 77 76 76 76 76 76 76 75 75 75 75 76 76
69 67 68 61 57 58 55 55 55 56 55 55 51 54 56 53 55 57 57 57 59 60 60 60 60 59 62 64 64 67 68 69 70 71 71 71 71 71 72 72 71 72 72 72 73 74 75 76 76 76 76 76 76 75 76 76 76 76 76 76 76 76 76 76 75 75 75 76 76 76 76 76 76 76 76 77 76 77 77 77 77 77 77 77 77 76 76 76 75 75 75 75 76 75 76 76 76
70 66 61 59 58 54 53 53 52 52 54 55 52 50 50 53 54 55 57 58 59 59 59 61 61 61 63 62 65 66 68 70 70 70 71 71 71 71 71 71 72 72 72 72 73 74 75 77 76 77 77 77 76 75 75 76 76 76 76 76 75 75 76 76 75 75 75 76 76 76 76 76 76 76 76 76 76 77 77 77 77 77 77 77 77 76 76 75 76 76 76 76 75 76 76 76 76
64 66 64 59 55 52 51 49 51 50 49 53 52 51 49 52 52 56 57 59 61 60 60 61 61 61 62 64 66 68 69 69 69 69 70 71 71 71 71 71 72 72 72 72 73 75 76 76 77 77 77 77 76 76 75 75 75 75 75 75 75 76 76 76 75 75 75 76 76 76 76 76 76 76 76 76 76 76 77 77 77 78 77 77 77 76 76 76 75 75 75 76 76 76 76 76 76
61 63 62 57 54 52 51 51 48 49 46 48 48 49 51 57 59 58 60 59 60 59 59 60 59 62 62 64 66 68 69 69 69 70 70 71 71 71 71 71 71 72 72 73 74 75 75 76 76 77 77 77 76 76 76 76 75 76 76 76 76 76 76 76 76 75 75 75 76 76 76 76 76 76 76 76 76 76 77 77 77 77 77 76 76 76 76 75 75 76 76 76 76 76 76 76 77
61 60 58 53 52 52 52 50 49 52 43 45 46 49 51 57 58 59 59 60 60 59 59 61 61 62 61 63 67 68 68 69 69 69 69 69 70 70 70 70 71 72 73 74 74 74 75 75 75 75 76 76 76 76 76 76 76 76 76 76 76 76 76 76 76 75 75 75 75 76 76 76 76 76 76 76 76 76 76 77 77 77 76 76 76 75 75 75 75 75 76 76 76 76 76 76 77
62 60 56 53 55 51 51 50 50 46 38 42 45 48 50 55 58 59 59 59 59 59 61 61 61 62 62 64 66 66 66 68 69 69 68 69 69 69 69 70 72 72 73 73 73 74 75 75 75 75 75 75 75 76 76 76 76 77 77 76 76 76 76 76 76 75 75 74 75 76 76 76 76 76 76 76 77 77 77 76 76 76 75 76 76 76 75 75 75 75 76 76 75 75 76 76 76
61 62 58 57 53 51 50 48 44 38 38 38 44 46 47 56 58 58 58 58 60 61 61 61 61 60 60 61 63 65 66 68 69 69 68 69 69 69 69 70 71 72 72 73 74 74 74 74 75 75 76 75 75 75 75 74 76 76 77 77 76 76 76 76 76 75 75 74 74 75 76 77 76 76 76 77 77 76 77 76 75 75 75 75 75 75 75 75 74 75 75 75 75 75 75 76 76
61 60 57 52 49 49 48 46 42 35 35 35 43 46 51 53 56 56 58 61 60 61 61 60 61 62 61 61 62 65 67 67 68 68 68 69 69 69 69 70 70 71 72 73 74 74 74 74 74 74 74 74 74 74 74 74 76 76 77 76 76 76 76 76 76 75 75 74 74 74 76 76 76 75 76 75 75 75 76 76 75 75 75 76 76 76 75 74 75 75 75 75 75 76 76 77 76
62 63 52 53 50 49 46 45 38 32 32 36 40 50 51 52 56 57 60 61 59 59 61 61 60 61 61 61 63 66 67 68 69 68 68 68 68 68 69 69 70 71 72 73 73 74 74 74 74 74 74 74 74 74 74 74 75 76 76 76 76 77 77 77 76 75 75 74 74 74 76 77 75 75 74 75 75 75 76 75 75 76 76 76 76 75 75 74 74 75 75 75 75 76 76 77 77
58 57 54 51 51 49 48 45 44 37 32 37 43 51 53 53 55 57 59 60 60 60 59 60 61 61 61 62 65 66 67 67 67 67 67 67 68 67 67 68 69 70 71 71 73 73 74 74 75 74 75 75 75 75 75 75 75 76 75 75 75 75 76 76 75 75 75 74 74 74 75 76 75 75 75 77 77 76 75 75 75 75 75 75 74 76 75 74 74 74 75 75 75 75 76 76 77
55 54 52 48 49 48 47 46 44 39 32 36 46 52 53 54 55 56 55 57 58 57 58 59 59 60 62 64 65 66 66 66 66 66 66 67 67 67 67 68 68 69 70 71 71 72 73 75 75 75 75 75 75 75 75 75 74 75 74 74 75 76 76 75 75 76 74 74 75 75 76 75 75 75 76 77 77 77 76 76 76 75 76 76 75 75 75 75 75 75 76 76 76 76 76 75 76
54 52 50 50 50 48 48 48 43 43 40 33 46 51 53 54 55 55 55 54 55 57 57 58 59 59 61 64 65 66 66 66 66 66 66 67 66 66 67 67 67 68 69 70 70 72 74 74 74 75 75 75 75 75 76 75 75 74 74 75 75 75 75 76 74 75 74 74 75 75 76 75 76 75 78 76 76 77 77 77 76 76 77 76 76 78 76 75 76 75 75 74 74 74 72 71 72
52 51 50 48 49 48 47 45 43 43 43 35 40 52 53 54 54 54 54 54 54 57 58 58 59 60 61 63 65 65 65 66 66 66 66 66 66 66 67 67 67 68 69 69 69 71 73 74 74 74 75 75 75 75 75 75 75 75 75 75 75 75 75 74 74 74 74 74 75 75 75 75 75 75 76 76 74 75 74 74 76 75 75 75 77 73 73 73 74 72 72 73 70 72 72 71 71
52 51 51 50 49 46 46 44 42 42 43 36 42 50 51 53 53 53 54 53 53 56 58 59 60 61 62 63 64 65 65 65 66 66 66 66 66 66 67 67 68 68 68 68 68 71 72 73 73 73 74 74 74 74 75 76 76 75 75 75 75 75 74 74 73 74 74 74 74 75 75 74 75 75 74 75 74 74 74 74 75 74 73 73 76 73 72 73 72 73 72 72 72 72 71 71 71
47 50 50 50 49 47 46 44 43 42 43 38 38 42 45 48 50 53 53 53 53 58 60 60 61 62 63 64 64 65 65 65 66 66 66 66 66 66 67 67 67 67 68 68 69 71 71 72 73 73 73 73 73 74 75 75 75 75 75 75 74 74 74 74 73 73 74 74 74 74 74 74 74 74 74 74 74 75 74 74 74 73 72 72 75 72 71 73 72 72 72 72 72 72 71 71 71
48 46 48 49 48 47 47 45 43 42 42 39 35 34 35 37 47 52 52 51 55 59 60 61 62 63 64 64 64 64 65 65 65 66 66 66 67 67 67 67 68 68 68 68 69 70 71 71 72 72 72 72 73 73 74 75 75 74 75 76 75 75 74 74 73 73 73 74 74 74 75 73 73 73 74 74 74 74 74 74 74 73 73 72 74 72 71 72 72 71 72 71 71 72 71 70 70
48 46 45 46 47 47 47 47 45 42 42 41 36 33 33 35 45 50 48 55 59 60 61 62 62 63 63 64 64 65 65 65 65 66 66 67 67 68 68 68 68 68 68 68 70 70 71 71 71 72 72 72 72 73 73 74 74 74 74 74 74 76 74 73 73 73 72 74 74 74 76 73 73 73 73 74 74 73 73 73 73 72 72 73 74 72 72 72 71 71 71 71 71 70 70 70 71
48 47 45 44 45 46 46 46 45 41 41 38 33 34 35 30 40 42 51 58 59 60 60 61 62 62 63 63 64 65 65 65 65 66 66 67 67 68 68 68 68 68 68 68 69 70 70 71 71 71 72 72 72 72 73 73 73 73 73 73 73 75 74 73 73 72 72 73 74 74 75 73 72 71 73 74 73 71 72 72 73 72 72 73 74 72 72 73 72 70 71 70 71 71 71 70 71
39 44 44 43 44 45 45 45 45 41 39 39 37 40 40 35 44 50 55 58 60 60 60 61 62 62 63 63 64 65 65 65 65 66 66 66 67 68 68 68 68 68 68 68 69 70 70 70 71 71 72 73 72 72 72 73 72 72 73 72 72 73 73 73 73 72 72 73 74 75 75 73 71 71 73 73 73 72 71 71 71 71 72 73 73 73 73 73 72 71 70 70 71 71 71 71 71
33 32 32 39 42 44 44 44 43 39 38 40 41 40 39 35 47 51 55 58 60 59 60 60 61 62 62 63 64 65 65 65 65 66 65 66 66 67 67 67 67 67 68 68 68 69 69 70 71 71 72 72 72 71 72 72 71 72 72 72 72 72 73 72 72 72 73 73 73 74 74 73 73 71 73 73 73 72 71 71 71 71 71 71 73 73 73 74 73 72 73 73 73 72 71 71 70
26 25 24 25 27 39 41 41 42 40 39 41 42 40 40 38 49 53 56 58 59 59 60 60 61 61 62 63 64 64 64 65 65 65 66 66 66 67 67 68 67 67 68 68 68 69 68 69 70 71 72 72 72 71 71 72 71 71 72 71 71 73 72 72 71 72 72 73 74 74 75 74 74 73 74 73 75 73 73 73 73 73 70 71 73 73 74 74 74 73 73 75 72 72 71 70 71
25 25 25 25 25 26 37 41 41 40 40 41 41 38 39 39 52 54 56 57 58 58 59 59 60 61 61 62 63 64 64 64 64 65 65 66 66 66 67 67 67 67 67 68 68 68 69 69 70 71 72 72 72 71 71 71 71 71 72 71 72 72 72 72 72 72 73 73 74 74 75 75 75 75 73 73 74 73 73 73 72 72 71 72 73 75 74 73 73 72 72 71 73 73 71 70 69
19 23 23 24 24 26 36 39 38 35 40 41 42 39 39 43 53 55 56 57 57 58 58 59 59 60 60 61 62 63 63 64 64 64 65 65 66 66 66 67 67 67 68 67 67 68 69 69 70 71 72 71 72 72 71 71 71 71 72 71 71 72 71 72 72 72 73 73 74 74 75 75 75 75 74 73 73 73 72 73 71 72 73 73 74 73 73 72 72 71 72 68 69 70 70 71 68
28 18 18 21 22 25 26 38 37 32 40 41 41 43 39 44 53 55 56 56 57 57 58 58 59 59 59 61 62 62 63 63 63 63 63 64 65 65 65 66 66 66 67 67 67 68 68 69 70 70 72 71 71 71 71 71 71 71 72 73 72 72 72 71 71 73 73 74 74 74 74 74 74 75 75 74 73 73 72 71 72 73 74 74 73 73 72 70 70 70 72 70 68 68 70 67 67
22 19 25 19 23 22 23 29 35 37 39 40 40 39 40 43 53 54 55 56 56 56 57 57 58 58 59 60 61 62 62 62 62 62 63 63 64 64 65 65 66 66 67 67 67 67 68 69 71 70 71 71 71 71 71 71 71 71 71 72 72 72 71 71 71 72 74 74 74 73 74 75 74 74 75 75 73 73 72 71 73 73 74 73 73 72 71 72 71 70 70 72 69 67 68 67 67
20 22 22 22 20 24 24 29 33 39 38 37 38 40 40 42 50 53 55 55 56 56 56 57 57 58 58 60 60 61 61 61 61 61 61 62 64 64 65 67 65 66 67 67 67 67 68 68 69 70 71 71 71 71 71 71 71 72 72 72 74 72 71 70 71 71 73 73 74 73 74 75 75 74 75 75 74 73 72 72 73 73 74 73 72 72 71 71 71 70 69 71 71 68 66 66 64
18 22 23 21 22 22 22 28 33 38 37 36 37 40 40 41 47 51 54 55 55 56 55 57 57 57 58 59 60 60 60 60 60 61 61 62 63 64 64 65 65 66 66 67 67 67 68 68 69 70 70 70 71 70 71 71 71 71 72 72 72 72 72 71 71 71 72 72 73 74 75 76 76 75 76 75 74 74 73 72 73 74 73 73 73 72 72 71 71 70 69 69 71 69 64 64 63
18 19 20 21 19 21 21 22 30 37 36 35 37 39 39 37 37 49 52 54 54 55 55 56 56 57 57 58 59 59 60 60 60 60 61 62 63 64 64 65 65 66 67 67 67 67 67 68 68 69 70 70 70 70 72 71 70 71 71 71 71 72 71 71 71 70 71 71 74 75 75 76 76 76 75 75 74 73 73 72 74 74 73 73 72 72 71 71 71 70 68 66 63 64 67 66 65
20 20 20 19 20 20 21 22 30 36 35 35 35 38 39 36 35 45 50 51 52 53 53 54 55 55 56 58 58 59 59 59 61 60 61 62 62 64 65 66 65 66 67 67 67 67 67 67 68 69 69 69 70 69 71 71 70 70 70 70 70 71 70 70 70 70 70 72 73 75 75 76 76 76 76 75 73 75 73 73 74 73 73 73 72 72 71 71 70 70 70 68 63 62 62 65 67
19 19 19 20 20 19 21 22 31 33 33 34 36 35 39 38 36 41 48 48 49 50 51 53 55 55 55 57 58 58 58 59 61 61 61 62 62 64 65 66 67 65 66 67 66 67 67 67 68 68 69 69 69 69 71 71 70 70 70 70 69 71 70 70 70 70 70 72 73 74 75 75 76 76 76 74 74 74 73 73 73 73 73 73 72 72 71 73 71 69 67 63 66 62 62 65 66
19 19 19 20 20 21 22 23 23 30 33 33 34 34 38 39 38 40 46 46 48 49 50 51 54 54 55 57 58 58 58 58 59 61 61 62 62 63 64 66 66 66 65 67 67 67 67 67 68 68 69 69 69 68 70 71 71 71 70 70 69 70 70 70 70 72 72 72 73 74 75 74 75 75 75 74 74 74 73 73 73 73 72 73 72 71 71 70 69 68 66 62 62 65 66 68 67
18 18 19 19 21 22 21 22 25 27 31 33 35 32 38 40 41 40 43 44 46 49 49 50 54 54 54 56 57 58 58 58 58 60 60 62 62 62 64 65 66 66 66 66 67 67 68 68 68 69 69 69 70 69 70 71 71 71 71 71 70 70 70 71 71 72 72 71 72 74 74 74 74 74 74 74 74 74 73 72 72 72 72 73 72 71 70 70 69 67 64 65 62 61 63 64 69
19 18 18 18 19 20 21 21 22 28 30 34 35 40 42 41 40 41 40 42 43 47 48 49 52 54 54 56 57 58 57 58 58 59 60 61 62 62 63 64 66 66 67 66 67 67 67 68 68 69 70 70 70 71 70 70 72 72 71 71 71 71 72 71 70 70 71 71 71 72 73 74 74 74 74 74 74 75 74 72 72 72 72 73 72 70 70 69 69 66 64 66 64 63 63 64 66
18 20 19 19 20 22 21 21 27 29 28 33 34 37 36 41 40 41 42 42 41 45 47 47 50 52 53 55 56 57 58 58 58 59 60 61 62 62 63 64 65 66 67 67 67 67 67 68 68 69 70 71 71 71 71 71 71 71 70 70 69 69 69 69 69 68 70 70 70 71 73 74 74 74 74 74 74 75 74 73 72 72 72 73 72 70 70 68 68 65 66 66 65 65 64 63 62
17 18 20 20 20 21 21 21 22 23 23 31 34 32 35 41 40 41 42 42 42 43 45 46 48 51 52 54 56 57 57 57 58 59 59 60 61 62 62 63 64 65 66 67 68 68 68 68 69 69 70 71 72 72 72 72 71 71 70 69 69 68 68 69 70 70 70 71 71 71 72 73 74 73 74 74 74 75 74 73 73 73 73 72 73 71 70 69 68 66 67 65 65 68 64 63 63
14 18 21 21 20 21 21 21 21 29 31 32 33 33 36 37 39 42 42 42 42 42 42 43 46 49 51 53 55 57 57 57 58 58 59 60 61 61 62 63 64 65 66 67 68 68 68 68 69 69 69 71 72 72 72 72 71 71 70 70 70 68 68 69 70 70 71 71 71 71 72 73 73 73 74 74 74 74 74 74 73 73 73 73 73 71 70 67 67 67 68 67 67 67 65 64 63
13 18 22 21 21 21 22 22 21 21 22 21 27 34 36 38 39 42 42 42 42 43 42 42 43 47 50 52 54 56 57 57 58 58 59 60 60 61 62 62 63 64 65 66 67 68 68 68 69 70 70 70 71 72 72 72 72 71 71 70 70 70 69 70 71 71 71 72 71 71 72 73 73 73 74 74 74 74 75 74 73 73 72 72 73 71 68 65 66 67 67 67 67 66 64 65 64
12 17 20 20 21 21 22 21 20 23 21 21 27 29 28 32 40 40 42 41 41 42 43 43 43 44 48 50 53 55 57 58 58 58 59 59 60 61 61 62 63 64 65 67 66 68 69 69 69 70 70 70 70 72 73 72 72 72 71 71 70 70 70 70 70 71 71 71 71 71 72 73 73 73 73 73 74 74 74 74 73 72 72 71 72 68 67 66 67 66 67 66 66 66 66 66 64
13 15 16 17 18 19 23 25 25 26 20 20 20 26 28 27 37 40 41 41 42 42 44 44 45 44 46 49 51 53 56 57 58 58 58 59 60 61 61 61 62 63 65 66 66 67 68 69 69 69 70 71 71 71 72 72 72 72 71 71 70 70 70 70 70 70 71 71 70 71 72 72 73 73 73 73 74 74 74 74 73 72 71 71 72 68 67 66 66 66 65 66 66 65 66 64 67
9 13 15 17 20 21 21 27 30 20 17 26 21 21 26 23 32 40 41 42 42 42 42 43 44 46 45 47 49 51 54 57 58 58 58 59 59 60 61 62 62 63 64 65 66 67 68 68 69 69 70 71 71 71 72 72 72 72 72 71 71 70 70 70 70 69 71 71 71 71 72 73 73 73 73 73 73 74 74 73 73 71 71 69 70 67 67 65 65 66 66 66 66 65 65 66 66
7 8 19 16 18 19 16 19 16 18 17 26 25 25 27 25 35 37 41 41 42 42 42 43 44 45 47 46 47 49 52 55 57 58 58 59 59 60 61 62 63 63 64 65 66 66 67 68 69 69 70 71 71 71 71 72 72 72 72 71 71 71 70 70 70 69 70 71 71 71 72 72 73 73 73 72 72 73 73 72 71 71 70 69 69 67 67 66 66 66 66 66 66 65 63 63 64
6 6 16 17 15 15 17 18 22 22 27 28 22 26 23 32 30 38 39 41 42 42 42 43 44 45 47 47 47 48 50 53 56 57 58 59 59 60 61 62 63 63 64 64 65 66 67 68 68 69 70 71 71 72 71 71 72 72 72 72 71 71 71 70 70 70 70 71 71 71 72 72 72 72 72 72 72 72 72 71 71 70 69 68 68 67 66 66 66 65 66 64 64 65 65 63 63
6 6 9 16 17 19 17 18 16 17 20 23 23 21 26 18 26 34 38 41 42 42 42 43 44 45 46 47 48 48 49 51 54 57 58 59 60 60 61 62 63 63 63 64 65 66 67 68 69 69 69 70 71 72 72 71 71 72 72 72 72 72 71 71 70 70 70 71 71 71 72 72 72 72 72 72 72 72 71 71 70 69 68 67 67 67 67 66 66 65 65 63 63 64 64 63 61
5 6 9 12 13 28 16 25 20 22 20 21 25 24 28 21 35 37 37 39 42 43 42 43 44 45 45 46 48 48 49 50 53 55 58 59 60 60 61 61 62 63 64 64 65 66 66 67 68 69 69 70 71 71 72 71 71 72 72 72 72 72 72 71 71 71 71 71 71 71 72 72 72 72 72 72 72 71 71 70 69 68 67 66 66 66 66 65 65 64 64 63 62 65 63 63 62
8 5 5 10 18 14 22 35 30 30 26 16 31 27 28 33 26 31 39 37 41 43 43 42 44 45 46 46 47 48 50 50 52 54 56 59 60 61 61 61 62 63 64 64 65 66 66 67 68 69 69 70 70 71 71 72 72 71 72 72 72 72 72 71 71 71 71 71 71 71 71 71 72 72 72 72 71 71 70 70 68 67 66 65 66 66 65 65 65 64 63 64 62 64 63 63 63
9 3 6 14 17 13 16 14 19 18 16 21 20 16 21 25 23 35 33 38 38 42 43 43 44 44 45 45 46 48 49 51 52 53 55 58 60 61 61 61 62 63 64 64 65 66 67 67 68 69 69 70 70 71 71 72 72 71 72 72 72 72 72 72 71 71 71 71 71 71 71 71 71 71 71 72 71 70 70 71 68 67 66 65 65 65 65 65 64 63 63 63 63 64 63 64 64
5 4 9 5 13 10 21 22 12 13 14 17 20 20 22 24 27 29 28 35 37 39 42 43 44 44 44 45 46 47 48 51 52 53 54 56 58 60 61 61 62 63 64 64 65 66 67 67 68 69 69 70 70 71 71 72 72 72 72 72 72 72 72 72 72 71 71 71 71 71 71 70 71 71 71 71 71 70 69 69 67 66 66 65 65 65 65 64 64 63 63 63 64 64 63 63 64
10 9 7 9 12 9 14 17 22 20 15 17 15 22 19 29 26 32 24 31 36 37 39 41 43 44 44 44 46 47 48 50 52 53 53 55 56 59 60 61 61 63 64 65 65 66 66 67 69 69 70 70 71 71 71 71 72 72 72 72 72 72 72 72 72 72 71 71 71 71 70 70 70 71 71 71 70 70 69 68 66 65 65 64 65 64 64 64 64 63 64 63 64 64 63 63 64
11 8 8 11 11 20 7 22 11 19 23 20 18 15 23 31 34 29 26 26 31 36 38 40 42 43 44 44 45 47 48 48 50 53 54 54 55 57 59 60 61 62 64 65 65 65 66 67 69 69 70 70 71 71 71 72 72 72 72 72 72 72 72 73 72 72 71 71 71 71 70 70 71 71 70 70 70 70 69 68 65 65 64 64 65 65 64 64 63 63 64 63 63 64 63 63 65
12 10 9 7 5 14 6 7 10 11 18 21 18 14 28 31 34 33 29 27 26 33 36 38 40 42 43 44 44 46 48 49 49 51 53 54 55 56 58 60 61 62 63 64 65 65 65 67 68 69 70 70 71 71 72 72 72 72 72 72 72 72 72 73 72 72 72 71 71 70 70 70 70 70 70 70 70 69 69 67 66 65 65 64 65 65 64 64 63 63 63 64 63 63 63 63 63